FW5912 Weather Reports


Display with metric or nautical units.
time (UTC)temp
F
wind
direction
speed
MPH
gust
MPH
rain 1hr
in
rain 24hr
in
rain mn
in
humidity
%
barometer
mb
20220116181649 50 251 9.0 16.0 0.00 0.00 0.00 57 1018.5
20220116180128 48 300 10.0 19.0 0.00 0.00 0.00 63 1018.6
20220116174706 48 291 9.0 16.0 0.00 0.00 0.00 58 1018.9
20220116173118 47 273 8.0 14.0 0.00 0.00 0.00 59 1019.1
20220116171621 46 302 7.0 15.0 0.00 0.00 0.00 61 1019.3
20220116170155 45 306 7.0 16.0 0.00 0.00 0.00 62 1019.7
20220116164641 44 302 6.0 16.0 0.00 0.00 0.00 62 1019.9
20220116163103 43 305 8.0 15.0 0.00 0.00 0.00 62 1020.1
20220116161808 42 323 9.0 16.0 0.00 0.00 0.00 63 1020.1
20220116160109 42 319 9.0 15.0 0.00 0.00 0.00 64 1020.1
20220116154724 40 339 11.0 17.0 0.00 0.00 0.00 65 1020.3
20220116153144 40 356 10.0 18.0 0.00 0.00 0.00 65 1020.3
20220116151806 39 341 8.0 16.0 0.00 0.00 0.00 66 1020.3
20220116150146 38 352 10.0 20.0 0.00 0.00 0.00 68 1020.3
20220116144647 37 313 9.0 16.0 0.00 0.00 0.00 70 1020.5
20220116143254 37 308 8.0 16.0 0.00 0.00 0.00 70 1020.1
20220116141612 36 269 9.0 15.0 0.00 0.00 0.00 71 1020.0
20220116140141 36 303 8.0 15.0 0.00 0.00 0.00 72 1020.1
20220116134624 36 311 6.0 12.0 0.00 0.00 0.00 72 1020.1
20220116133128 35 311 6.0 13.0 0.00 0.00 0.00 72 1020.2
20220116131604 35 318 8.0 13.0 0.00 0.00 0.00 72 1020.0
20220116130216 36 319 8.0 15.0 0.00 0.00 0.00 71 1019.8
20220116124748 35 307 6.0 14.0 0.00 0.00 0.00 71 1019.6
20220116123144 36 314 8.0 14.0 0.00 0.00 0.00 71 1019.6
20220116121641 36 326 6.0 13.0 0.00 0.00 0.00 71 1019.0
20220116120254 36 307 7.0 12.0 0.00 0.00 0.00 70 1019.1
20220116114640 36 311 10.0 14.0 0.00 0.00 0.00 69 1018.8
20220116113110 36 285 8.0 16.0 0.00 0.00 0.00 68 1018.9
20220116111611 36 300 8.0 14.0 0.00 0.00 0.00 69 1018.8
20220116110223 36 303 8.0 14.0 0.00 0.00 0.00 69 1018.9
20220116104632 36 309 7.0 12.0 0.00 0.00 0.00 69 1018.9
20220116103212 36 302 6.0 12.0 0.00 0.00 0.00 68 1018.8
20220116101643 37 297 7.0 12.0 0.00 0.00 0.00 66 1019.1
20220116100218 37 312 8.0 14.0 0.00 0.00 0.00 64 1019.3
20220116094650 37 300 10.0 20.0 0.00 0.00 0.00 68 1019.2
20220116093103 37 285 11.0 14.0 0.00 0.00 0.00 62 1019.5
20220116091659 37 316 9.0 17.0 0.00 0.00 0.00 62 1019.3
20220116090158 37 313 10.0 16.0 0.00 0.00 0.00 61 1019.4
20220116084628 38 323 10.0 20.0 0.00 0.00 0.00 60 1019.6
20220116083212 38 347 11.0 21.0 0.00 0.00 0.00 60 1019.5
20220116081643 38 317 12.0 22.0 0.00 0.00 0.00 65 1019.2
20220116080125 38 320 12.0 21.0 0.00 0.00 0.00 64 1018.9
20220116074619 38 338 8.0 21.0 0.00 0.00 0.00 60 1019.3
20220116073148 38 319 11.0 18.0 0.00 0.00 0.00 58 1018.7
20220116071654 38 297 15.0 28.0 0.00 0.00 0.00 57 1017.8
20220116070228 39 326 10.0 25.0 0.00 0.00 0.00 66 1019.9
20220116064747 39 328 14.0 24.0 0.00 0.01 0.00 56 1019.3
20220116063235 39 337 12.0 28.0 0.00 0.01 0.00 56 1019.3
20220116061718 39 314 15.0 30.0 0.00 0.01 0.00 55 1019.5
20220116060142 40 323 13.0 23.0 0.00 0.01 0.00 61 1019.4
20220116054652 40 334 17.0 27.0 0.00 0.01 0.01 59 1019.3
20220116053115 41 306 14.0 23.0 0.00 0.01 0.01 54 1019.3
20220116051644 41 302 13.0 23.0 0.00 0.01 0.01 60 1019.5
20220116050200 41 312 17.0 27.0 0.00 0.01 0.01 52 1019.3
20220116044621 42 326 16.0 25.0 0.00 0.01 0.01 57 1019.1
20220116043114 42 313 13.0 22.0 0.00 0.01 0.01 52 1019.2
20220116041634 42 292 13.0 25.0 0.00 0.01 0.01 56 1019.2
20220116040204 43 312 14.0 23.0 0.00 0.01 0.01 57 1019.4
20220116034627 43 319 11.0 23.0 0.00 0.01 0.01 49 1019.1
20220116033214 43 314 16.0 28.0 0.00 0.01 0.01 53 1019.1
20220116031626 44 2 14.0 26.0 0.00 0.01 0.01 47 1019.1
20220116030243 44 324 15.0 23.0 0.00 0.01 0.01 51 1019.1
20220116024602 44 318 12.0 24.0 0.00 0.01 0.01 52 1019.3
20220116023131 44 336 14.0 20.0 0.00 0.01 0.01 51 1019.3
20220116021652 45 277 14.0 22.0 0.00 0.01 0.01 52 1019.1
20220116020211 45 338 11.0 20.0 0.00 0.01 0.01 52 1018.7
20220116014705 45 302 16.0 27.0 0.00 0.01 0.01 44 1018.6
20220116013128 46 324 11.0 24.0 0.00 0.01 0.01 45 1018.5
20220116011640 46 334 18.0 30.0 0.00 0.01 0.01 45 1018.3
20220116010105 46 347 16.0 32.0 0.00 0.01 0.01 48 1018.1
20220116004637 47 300 17.0 26.0 0.00 0.01 0.01 49 1018.0
20220116003157 47 303 17.0 28.0 0.00 0.01 0.01 49 1017.7
20220116001742 47 320 18.0 28.0 0.00 0.01 0.01 47 1017.4
20220116000133 47 312 13.0 25.0 0.00 0.01 0.01 50 1017.1
20220115234645 47 315 16.0 30.0 0.00 0.01 0.01 51 1017.0
20220115233236 48 330 17.0 34.0 0.00 0.01 0.01 42 1016.3
20220115231657 49 327 17.0 27.0 0.00 0.01 0.01 51 1016.0
20220115230116 49 311 17.0 31.0 0.00 0.01 0.01 47 1015.8
20220115224630 49 328 20.0 35.0 0.00 0.01 0.01 47 1015.5
20220115223142 50 332 23.0 33.0 0.00 0.01 0.01 41 1015.0
20220115221758 50 321 20.0 34.0 0.00 0.01 0.01 49 1014.9
20220115220220 51 333 19.0 32.0 0.00 0.01 0.01 49 1014.9
20220115214730 50 291 19.0 30.0 0.00 0.01 0.01 48 1015.0
20220115213250 51 300 21.0 29.0 0.00 0.01 0.01 48 1014.9
20220115211718 51 328 18.0 30.0 0.00 0.01 0.01 50 1014.9
20220115210215 51 312 19.0 30.0 0.00 0.01 0.01 46 1014.9
20220115204751 51 336 19.0 32.0 0.00 0.01 0.01 47 1014.6
20220115203213 52 302 19.0 33.0 0.00 0.01 0.01 53 1014.6
20220115201645 52 320 16.0 29.0 0.00 0.01 0.01 50 1014.6
20220115200151 51 349 21.0 32.0 0.00 0.01 0.01 51 1014.7
20220115194639 52 326 19.0 32.0 0.00 0.01 0.01 50 1014.8
20220115193216 51 310 17.0 30.0 0.00 0.01 0.01 51 1015.0
20220115191725 51 13 16.0 29.0 0.00 0.01 0.01 53 1015.0
20220115190228 51 342 18.0 32.0 0.00 0.01 0.01 55 1014.8
20220115184622 51 333 17.0 26.0 0.00 0.01 0.01 58 1015.0
20220115183214 51 329 19.0 34.0 0.00 0.01 0.01 58 1015.4